Data No,UTC Date,UTC Time,Latitude,Longitude,Course(deg),Temp(degC),Sal(psu)
21,2008/1/6,15:30:00,  9-41.259N,106-58.473E,212.6,25.9453,33.2562
22,2008/1/6,15:31:00,  9-41.060N,106-58.371E,211.9,25.9515,33.2597
23,2008/1/6,15:32:00,  9-40.858N,106-58.274E,201.3,25.9542,33.2623
24,2008/1/6,15:33:00,  9-40.657N,106-58.175E,206.6,25.9429,33.2661
25,2008/1/6,15:34:00,  9-40.456N,106-58.076E,207.7,25.9341,33.2665
26,2008/1/6,15:35:00,  9-40.254N,106-57.980E,203.1,25.8983,33.2673
27,2008/1/6,15:36:00,  9-40.053N,106-57.878E,205.9,25.8783,33.2678
28,2008/1/6,15:37:00,  9-39.852N,106-57.779E,208.8,25.927,33.2722
29,2008/1/6,15:38:00,  9-39.651N,106-57.681E,206.7,25.9194,33.273
30,2008/1/6,15:39:00,  9-39.450N,106-57.583E,205,25.8984,33.2733
31,2008/1/6,15:40:00,  9-39.248N,106-57.483E,207.3,25.895,33.274
32,2008/1/6,15:41:00,  9-39.047N,106-57.383E,206.3,25.9002,33.2802
33,2008/1/6,15:42:00,  9-38.841N,106-57.292E,209.1,25.8921,33.2859
34,2008/1/6,15:43:00,  9-38.637N,106-57.202E,200.3,25.9138,33.2895
35,2008/1/6,15:44:00,  9-38.433N,106-57.112E,200.1,25.9067,33.2994
36,2008/1/6,15:45:00,  9-38.230N,106-57.018E,202.3,25.8753,33.2984
37,2008/1/6,15:46:00,  9-38.026N,106-56.926E,202.2,25.8999,33.3007
38,2008/1/6,15:47:00,  9-37.821N,106-56.836E,209.1,25.8994,33.3053
39,2008/1/6,15:48:00,  9-37.616N,106-56.743E,203.3,25.86,33.3069
40,2008/1/6,15:49:00,  9-37.411N,106-56.654E,203.2,25.8756,33.3068
41,2008/1/6,15:50:00,  9-37.206N,106-56.561E,204.1,25.8622,33.3084
42,2008/1/6,15:51:00,  9-37.001N,106-56.472E,203.7,25.8599,33.3111
43,2008/1/6,15:52:00,  9-36.796N,106-56.380E,199.9,25.8614,33.3115
44,2008/1/6,15:53:00,  9-36.590N,106-56.292E,205.2,25.8634,33.3105
45,2008/1/6,15:54:00,  9-36.387N,106-56.199E,208.1,25.8495,33.3106
46,2008/1/6,15:55:00,  9-36.182N,106-56.109E,204.5,25.8606,33.3123
47,2008/1/6,15:56:00,  9-35.978N,106-56.018E,198.9,25.8326,33.3141
48,2008/1/6,15:57:00,  9-35.774N,106-55.924E,197.3,25.8405,33.3131
49,2008/1/6,15:58:00,  9-35.570N,106-55.833E,199.2,25.8483,33.3116
50,2008/1/6,15:59:00,  9-35.367N,106-55.743E,202.8,25.8457,33.3144
51,2008/1/6,16:00:00,  9-35.163N,106-55.651E,203.3,25.8552,33.3139
52,2008/1/6,16:01:00,  9-34.959N,106-55.560E,199.7,25.8449,33.3152
53,2008/1/6,16:02:00,  9-34.754N,106-55.470E,208.8,25.8462,33.3135
54,2008/1/6,16:03:00,  9-34.550N,106-55.378E,200.5,25.8445,33.3147
55,2008/1/6,16:04:00,  9-34.346N,106-55.286E,203.4,25.843,33.3154
56,2008/1/6,16:05:00,  9-34.139N,106-55.201E,204,25.8367,33.3143
57,2008/1/6,16:06:00,  9-33.932N,106-55.115E,198.1,25.8172,33.3137
58,2008/1/6,16:07:00,  9-33.726N,106-55.029E,202.5,25.7964,33.3141
59,2008/1/6,16:08:00,  9-33.522N,106-54.939E,205.1,25.8221,33.3151
60,2008/1/6,16:09:00,  9-33.316N,106-54.855E,197.1,25.814,33.3157
61,2008/1/6,16:10:00,  9-33.112N,106-54.766E,206.3,25.813,33.313
62,2008/1/6,16:11:00,  9-32.908N,106-54.679E,203.5,25.8173,33.3153
63,2008/1/6,16:12:00,  9-32.705N,106-54.595E,207.3,25.8191,33.3163
64,2008/1/6,16:13:00,  9-32.502N,106-54.508E,198.4,25.8066,33.3188
65,2008/1/6,16:14:00,  9-32.299N,106-54.419E,209.3,25.7886,33.3192
66,2008/1/6,16:15:00,  9-32.096N,106-54.331E,207.6,25.821,33.3216
67,2008/1/6,16:16:00,  9-31.895N,106-54.233E,205.2,25.8026,33.3212
68,2008/1/6,16:17:00,  9-31.696N,106-54.130E,211.3,25.8083,33.3199
69,2008/1/6,16:18:00,  9-31.497N,106-54.027E,208.7,25.8127,33.3218
70,2008/1/6,16:19:00,  9-31.299N,106-53.922E,203.8,25.8141,33.3221
71,2008/1/6,16:20:00,  9-31.099N,106-53.821E,211.9,25.814,33.3226
72,2008/1/6,16:21:00,  9-30.900N,106-53.718E,206.2,25.7991,33.3236
73,2008/1/6,16:22:00,  9-30.702N,106-53.615E,204.6,25.7994,33.3243
74,2008/1/6,16:23:00,  9-30.502N,106-53.514E,198.3,25.7982,33.3248
75,2008/1/6,16:24:00,  9-30.297N,106-53.428E,207.3,25.7899,33.3248
76,2008/1/6,16:25:00,  9-30.094N,106-53.338E,201.2,25.8027,33.3261
77,2008/1/6,16:26:00,  9-29.889N,106-53.254E,205,25.7874,33.3253
78,2008/1/6,16:27:00,  9-29.686N,106-53.164E,206.2,25.791,33.3269
79,2008/1/6,16:28:00,  9-29.481N,106-53.076E,201.2,25.7564,33.3263
80,2008/1/6,16:29:00,  9-29.276N,106-52.989E,208,25.7983,33.3257
81,2008/1/6,16:30:00,  9-29.071N,106-52.900E,203.4,25.7912,33.3265
82,2008/1/6,16:31:00,  9-28.866N,106-52.813E,200.6,25.7759,33.3261
83,2008/1/6,16:32:00,  9-28.659N,106-52.729E,198.1,25.7917,33.3268
84,2008/1/6,16:33:00,  9-28.451N,106-52.648E,202.6,25.7923,33.3291
85,2008/1/6,16:34:00,  9-28.245N,106-52.564E,195,25.7826,33.3285
86,2008/1/6,16:35:00,  9-28.038N,106-52.483E,200.4,25.769,33.3292
87,2008/1/6,16:36:00,  9-27.832N,106-52.399E,198.8,25.7879,33.3287
88,2008/1/6,16:37:00,  9-27.626N,106-52.316E,201,25.754,33.3294
89,2008/1/6,16:38:00,  9-27.421N,106-52.232E,199.5,25.768,33.329
90,2008/1/6,16:39:00,  9-27.216N,106-52.148E,199,25.7726,33.3315
91,2008/1/6,16:40:00,  9-27.009N,106-52.066E,202.4,25.7683,33.3303
92,2008/1/6,16:41:00,  9-26.804N,106-51.984E,196.9,25.7437,33.3322
93,2008/1/6,16:42:00,  9-26.600N,106-51.903E,201.1,25.7524,33.3301
94,2008/1/6,16:43:00,  9-26.396N,106-51.818E,205.7,25.7606,33.3306
95,2008/1/6,16:44:00,  9-26.190N,106-51.740E,202.2,25.7501,33.3313
96,2008/1/6,16:45:00,  9-25.987N,106-51.653E,198,25.7185,33.3295
97,2008/1/6,16:46:00,  9-25.782N,106-51.572E,195.8,25.7331,33.3291
98,2008/1/6,16:47:00,  9-25.576N,106-51.493E,200.3,25.7367,33.3282
99,2008/1/6,16:48:00,  9-25.370N,106-51.410E,198.5,25.7343,33.3243
100,2008/1/6,16:49:00,  9-25.167N,106-51.326E,206.6,25.736,33.3232
101,2008/1/6,16:50:00,  9-24.961N,106-51.245E,197.8,25.737,33.3192
102,2008/1/6,16:51:00,  9-24.756N,106-51.159E,202.3,25.7388,33.3203
103,2008/1/6,16:52:00,  9-24.549N,106-51.079E,203.9,25.7385,33.322
104,2008/1/6,16:53:00,  9-24.342N,106-50.996E,201.8,25.7289,33.3215
105,2008/1/6,16:54:00,  9-24.135N,106-50.915E,202.4,25.7379,33.3234
106,2008/1/6,16:55:00,  9-23.928N,106-50.831E,205.3,25.7318,33.3225
107,2008/1/6,16:56:00,  9-23.720N,106-50.756E,202.7,25.7255,33.3233
108,2008/1/6,16:57:00,  9-23.519N,106-50.666E,200.5,25.6939,33.3246
109,2008/1/6,16:58:00,  9-23.315N,106-50.582E,200.5,25.7095,33.327
110,2008/1/6,16:59:00,  9-23.110N,106-50.496E,199.6,25.716,33.3285
111,2008/1/6,17:00:00,  9-22.906N,106-50.407E,203.7,25.7141,33.326
112,2008/1/6,17:01:00,  9-22.701N,106-50.319E,202.5,25.709,33.3242
113,2008/1/6,17:02:00,  9-22.496N,106-50.231E,201.1,25.6893,33.3199
114,2008/1/6,17:03:00,  9-22.290N,106-50.147E,193.6,25.6945,33.3195
115,2008/1/6,17:04:00,  9-22.086N,106-50.061E,203.6,25.7065,33.3199
116,2008/1/6,17:05:00,  9-21.881N,106-49.973E,199.9,25.705,33.3204
117,2008/1/6,17:06:00,  9-21.676N,106-49.885E,201.3,25.7037,33.3182
118,2008/1/6,17:07:00,  9-21.469N,106-49.800E,198.8,25.7077,33.3182
119,2008/1/6,17:08:00,  9-21.264N,106-49.713E,200,25.6975,33.3188
120,2008/1/6,17:09:00,  9-21.061N,106-49.626E,200.2,25.712,33.3217
121,2008/1/6,17:10:00,  9-20.857N,106-49.539E,203.5,25.6942,33.3248
122,2008/1/6,17:11:00,  9-20.651N,106-49.453E,202.9,25.7194,33.3269
123,2008/1/6,17:12:00,  9-20.447N,106-49.365E,196.9,25.7124,33.33
124,2008/1/6,17:13:00,  9-20.242N,106-49.279E,197.5,25.7247,33.332
125,2008/1/6,17:14:00,  9-20.038N,106-49.192E,197,25.7166,33.3325
126,2008/1/6,17:15:00,  9-19.833N,106-49.106E,203.5,25.7071,33.3329
127,2008/1/6,17:16:00,  9-19.627N,106-49.020E,206.1,25.7086,33.3321
128,2008/1/6,17:17:00,  9-19.422N,106-48.933E,201.5,25.6991,33.3314
129,2008/1/6,17:18:00,  9-19.218N,106-48.847E,201.5,25.7003,33.3294
130,2008/1/6,17:19:00,  9-19.013N,106-48.761E,206.1,25.7036,33.3292
131,2008/1/6,17:20:00,  9-18.808N,106-48.675E,197.1,25.6826,33.3281
132,2008/1/6,17:21:00,  9-18.604N,106-48.588E,202.6,25.6882,33.3275
133,2008/1/6,17:22:00,  9-18.399N,106-48.500E,212.9,25.7029,33.3267
134,2008/1/6,17:23:00,  9-18.195N,106-48.415E,204.8,25.696,33.3243
135,2008/1/6,17:24:00,  9-17.990N,106-48.329E,201.7,25.6804,33.3227
136,2008/1/6,17:25:00,  9-17.784N,106-48.244E,203.6,25.6799,33.3229
137,2008/1/6,17:26:00,  9-17.578N,106-48.160E,204.8,25.6831,33.3223
138,2008/1/6,17:27:00,  9-17.372N,106-48.073E,203.8,25.6891,33.3244
139,2008/1/6,17:28:00,  9-17.167N,106-47.986E,199.5,25.6781,33.3271
140,2008/1/6,17:29:00,  9-16.963N,106-47.899E,203.5,25.6874,33.3252
141,2008/1/6,17:30:00,  9-16.757N,106-47.814E,206.2,25.6674,33.3268
142,2008/1/6,17:31:00,  9-16.551N,106-47.727E,200.3,25.6768,33.3284
143,2008/1/6,17:32:00,  9-16.346N,106-47.642E,201,25.6816,33.3301
144,2008/1/6,17:33:00,  9-16.141N,106-47.555E,204,25.6754,33.3298
145,2008/1/6,17:34:00,  9-15.937N,106-47.467E,203.5,25.6914,33.3312
146,2008/1/6,17:35:00,  9-15.734N,106-47.372E,207.8,25.6845,33.3322
147,2008/1/6,17:36:00,  9-15.531N,106-47.280E,198.6,25.6824,33.332
148,2008/1/6,17:37:00,  9-15.326N,106-47.189E,201.5,25.6807,33.3337
149,2008/1/6,17:38:00,  9-15.123N,106-47.097E,203.8,25.6738,33.3341
150,2008/1/6,17:39:00,  9-14.920N,106-47.005E,201.8,25.6714,33.3363
151,2008/1/6,17:40:00,  9-14.718N,106-46.911E,201.6,25.6554,33.3372
152,2008/1/6,17:41:00,  9-14.516N,106-46.821E,209.8,25.6674,33.3371
153,2008/1/6,17:42:00,  9-14.312N,106-46.732E,209.5,25.6682,33.3368
154,2008/1/6,17:43:00,  9-14.111N,106-46.637E,203.9,25.6391,33.3356
155,2008/1/6,17:44:00,  9-13.908N,106-46.547E,204.5,25.6538,33.3359
156,2008/1/6,17:45:00,  9-13.705N,106-46.457E,207.2,25.6406,33.3338
157,2008/1/6,17:46:00,  9-13.502N,106-46.366E,208.3,25.6474,33.3311
158,2008/1/6,17:47:00,  9-13.297N,106-46.274E,204.6,25.654,33.3287
159,2008/1/6,17:48:00,  9-13.094N,106-46.181E,198.5,25.6469,33.3263
160,2008/1/6,17:49:00,  9-12.888N,106-46.093E,199,25.6283,33.3254
161,2008/1/6,17:50:00,  9-12.685N,106-45.999E,196,25.6266,33.3256
162,2008/1/6,17:51:00,  9-12.481N,106-45.907E,203.1,25.6294,33.3257
163,2008/1/6,17:52:00,  9-12.279N,106-45.814E,202.1,25.6335,33.3263
164,2008/1/6,17:53:00,  9-12.073N,106-45.724E,206.6,25.6326,33.3274
165,2008/1/6,17:54:00,  9-11.871N,106-45.630E,208.1,25.6443,33.3276
166,2008/1/6,17:55:00,  9-11.667N,106-45.541E,200,25.6238,33.3297
167,2008/1/6,17:56:00,  9-11.465N,106-45.450E,204.1,25.6332,33.3314
168,2008/1/6,17:57:00,  9-11.261N,106-45.363E,208.2,25.631,33.3327
169,2008/1/6,17:58:00,  9-11.060N,106-45.272E,209.3,25.6485,33.3323
170,2008/1/6,17:59:00,  9-10.858N,106-45.181E,204.3,25.6452,33.3336
171,2008/1/6,18:00:00,  9-10.655N,106-45.092E,205.6,25.6478,33.3352
172,2008/1/6,18:01:00,  9-10.452N,106-45.002E,202.6,25.6599,33.3384
173,2008/1/6,18:02:00,  9-10.250N,106-44.913E,200.4,25.6505,33.3391
174,2008/1/6,18:03:00,  9-10.080N,106-44.777E,221.3,25.6542,33.3396
175,2008/1/6,18:04:00,  9-09.941N,106-44.605E,234.1,25.6687,33.3399
176,2008/1/6,18:05:00,  9-09.828N,106-44.416E,238.9,25.6381,33.3371
177,2008/1/6,18:06:00,  9-09.714N,106-44.226E,238.2,25.6548,33.3359
178,2008/1/6,18:07:00,  9-09.596N,106-44.036E,237.6,25.6477,33.3374
179,2008/1/6,18:08:00,  9-09.479N,106-43.845E,241,25.6494,33.3386
180,2008/1/6,18:09:00,  9-09.363N,106-43.652E,238.3,25.655,33.3402
181,2008/1/6,18:10:00,  9-09.244N,106-43.462E,241.2,25.6438,33.3409
182,2008/1/6,18:11:00,  9-09.125N,106-43.269E,238.3,25.66,33.3409
183,2008/1/6,18:12:00,  9-09.009N,106-43.075E,241.3,25.6526,33.3402
184,2008/1/6,18:13:00,  9-08.892N,106-42.882E,238.3,25.6577,33.3388
185,2008/1/6,18:14:00,  9-08.773N,106-42.691E,238.9,25.6667,33.3364
186,2008/1/6,18:15:00,  9-08.656N,106-42.499E,239.7,25.6736,33.3379
187,2008/1/6,18:16:00,  9-08.540N,106-42.307E,243.2,25.6625,33.3377
188,2008/1/6,18:17:00,  9-08.422N,106-42.116E,236.1,25.6753,33.3401
189,2008/1/6,18:18:00,  9-08.305N,106-41.925E,241.6,25.6787,33.3395
190,2008/1/6,18:19:00,  9-08.189N,106-41.734E,238,25.6674,33.3388
191,2008/1/6,18:20:00,  9-08.073N,106-41.543E,236.9,25.6783,33.3409
192,2008/1/6,18:21:00,  9-07.955N,106-41.353E,239.3,25.6655,33.3406
193,2008/1/6,18:22:00,  9-07.840N,106-41.162E,241.2,25.6736,33.3416
194,2008/1/6,18:23:00,  9-07.724N,106-40.970E,239.5,25.6845,33.34
195,2008/1/6,18:24:00,  9-07.607N,106-40.778E,236.2,25.683,33.3402
196,2008/1/6,18:25:00,  9-07.488N,106-40.587E,238.4,25.6803,33.3392
197,2008/1/6,18:26:00,  9-07.372N,106-40.394E,243.5,25.6866,33.3391
198,2008/1/6,18:27:00,  9-07.253N,106-40.204E,236.9,25.6794,33.339
199,2008/1/6,18:28:00,  9-07.137N,106-40.013E,239.4,25.6766,33.3388
200,2008/1/6,18:29:00,  9-07.021N,106-39.821E,236.7,25.6778,33.341
201,2008/1/6,18:30:00,  9-06.902N,106-39.633E,241.4,25.6721,33.339
202,2008/1/6,18:31:00,  9-06.786N,106-39.443E,239.8,25.6903,33.3402
203,2008/1/6,18:32:00,  9-06.670N,106-39.252E,237.6,25.697,33.3417
204,2008/1/6,18:33:00,  9-06.553N,106-39.062E,240.5,25.691,33.342
205,2008/1/6,18:34:00,  9-06.436N,106-38.871E,237.1,25.6914,33.3428
206,2008/1/6,18:35:00,  9-06.309N,106-38.685E,230.8,25.6853,33.3427
207,2008/1/6,18:36:00,  9-06.175N,106-38.505E,233.2,25.6943,33.3437
208,2008/1/6,18:37:00,  9-06.045N,106-38.323E,230.4,25.68,33.3452
209,2008/1/6,18:38:00,  9-05.910N,106-38.143E,232.4,25.7063,33.3478
210,2008/1/6,18:39:00,  9-05.781N,106-37.959E,233.7,25.6984,33.3466
211,2008/1/6,18:40:00,  9-05.648N,106-37.778E,235.4,25.7018,33.3463
212,2008/1/6,18:41:00,  9-05.515N,106-37.597E,234.8,25.6904,33.3439
213,2008/1/6,18:42:00,  9-05.380N,106-37.419E,237,25.6978,33.344
214,2008/1/6,18:43:00,  9-05.248N,106-37.237E,233.4,25.6887,33.3452
215,2008/1/6,18:44:00,  9-05.117N,106-37.056E,231.5,25.7063,33.3471
216,2008/1/6,18:45:00,  9-04.985N,106-36.875E,235.3,25.7032,33.3479
217,2008/1/6,18:46:00,  9-04.852N,106-36.694E,235.2,25.7064,33.3467
218,2008/1/6,18:47:00,  9-04.718N,106-36.514E,230,25.7079,33.3478
219,2008/1/6,18:48:00,  9-04.587N,106-36.332E,231.6,25.6906,33.3483
220,2008/1/6,18:49:00,  9-04.452N,106-36.155E,233.4,25.7058,33.3488
221,2008/1/6,18:50:00,  9-04.321N,106-35.973E,235.2,25.6942,33.3489
222,2008/1/6,18:51:00,  9-04.189N,106-35.793E,238.8,25.7049,33.3494
223,2008/1/6,18:52:00,  9-04.058N,106-35.611E,233.3,25.7093,33.3487
224,2008/1/6,18:53:00,  9-03.924N,106-35.432E,233.4,25.6996,33.3477
225,2008/1/6,18:54:00,  9-03.794N,106-35.252E,232.8,25.7024,33.3454
226,2008/1/6,18:55:00,  9-03.659N,106-35.074E,234.8,25.7047,33.347
227,2008/1/6,18:56:00,  9-03.528N,106-34.894E,234.7,25.7001,33.3467
228,2008/1/6,18:57:00,  9-03.397N,106-34.714E,235.3,25.6922,33.3494
229,2008/1/6,18:58:00,  9-03.264N,106-34.536E,232.7,25.702,33.35
230,2008/1/6,18:59:00,  9-03.131N,106-34.357E,236.8,25.7021,33.3486
231,2008/1/6,19:00:00,  9-02.999N,106-34.179E,232.3,25.6933,33.3485
232,2008/1/6,19:01:00,  9-02.865N,106-34.000E,234.1,25.6959,33.3482
233,2008/1/6,19:02:00,  9-02.734N,106-33.820E,232.6,25.6945,33.3494
234,2008/1/6,19:03:00,  9-02.603N,106-33.640E,232,25.7013,33.3499
235,2008/1/6,19:04:00,  9-02.467N,106-33.461E,231.6,25.6866,33.351
236,2008/1/6,19:05:00,  9-02.334N,106-33.282E,234,25.6946,33.3511
237,2008/1/6,19:06:00,  9-02.201N,106-33.101E,233.7,25.6776,33.3519
238,2008/1/6,19:07:00,  9-02.069N,106-32.922E,230.1,25.6962,33.3507
239,2008/1/6,19:08:00,  9-01.935N,106-32.742E,234.1,25.679,33.3503
240,2008/1/6,19:09:00,  9-01.800N,106-32.563E,233.5,25.6855,33.3504
241,2008/1/6,19:10:00,  9-01.660N,106-32.391E,223.9,25.6778,33.3503
242,2008/1/6,19:11:00,  9-01.514N,106-32.224E,227.1,25.6794,33.35
243,2008/1/6,19:12:00,  9-01.362N,106-32.066E,234.6,25.6726,33.3523
244,2008/1/6,19:13:00,  9-01.214N,106-31.904E,226.8,25.6715,33.3522
245,2008/1/6,19:14:00,  9-01.064N,106-31.743E,228.2,25.6873,33.3537
246,2008/1/6,19:15:00,  9-00.915N,106-31.579E,226.3,25.685,33.3547
247,2008/1/6,19:16:00,  9-00.763N,106-31.419E,226.2,25.6931,33.3532
248,2008/1/6,19:17:00,  9-00.611N,106-31.256E,226.8,25.6851,33.3549
249,2008/1/6,19:18:00,  9-00.460N,106-31.094E,231.4,25.6795,33.3535
250,2008/1/6,19:19:00,  9-00.307N,106-30.934E,226.1,25.6849,33.3526
251,2008/1/6,19:20:00,  9-00.154N,106-30.772E,225.9,25.6899,33.3554
252,2008/1/6,19:21:00,  9-00.003N,106-30.612E,226.1,25.6761,33.3544
253,2008/1/6,19:22:00,  8-59.850N,106-30.452E,224.8,25.6746,33.3555
254,2008/1/6,19:23:00,  8-59.700N,106-30.288E,224.9,25.6761,33.358
255,2008/1/6,19:24:00,  8-59.547N,106-30.128E,226.7,25.6671,33.3594
256,2008/1/6,19:25:00,  8-59.396N,106-29.966E,226.7,25.6834,33.359
257,2008/1/6,19:26:00,  8-59.243N,106-29.806E,231.7,25.6644,33.358
258,2008/1/6,19:27:00,  8-59.092N,106-29.646E,223.7,25.6655,33.3589
259,2008/1/6,19:28:00,  8-58.942N,106-29.485E,224.4,25.6707,33.3585
260,2008/1/6,19:29:00,  8-58.790N,106-29.323E,231.6,25.6725,33.3622
261,2008/1/6,19:30:00,  8-58.655N,106-29.149E,228.7,25.6808,33.3608
262,2008/1/6,19:31:00,  8-58.517N,106-28.977E,236.4,25.6696,33.3605
263,2008/1/6,19:32:00,  8-58.382N,106-28.803E,235.7,25.667,33.3581
264,2008/1/6,19:33:00,  8-58.243N,106-28.631E,230.5,25.6712,33.3595
265,2008/1/6,19:34:00,  8-58.106N,106-28.458E,233.4,25.6709,33.3594
266,2008/1/6,19:35:00,  8-57.968N,106-28.283E,230.5,25.6601,33.3583
267,2008/1/6,19:36:00,  8-57.829N,106-28.111E,227,25.6575,33.3567
268,2008/1/6,19:37:00,  8-57.689N,106-27.939E,233.1,25.6561,33.3569
269,2008/1/6,19:38:00,  8-57.550N,106-27.766E,231.7,25.6614,33.3578
270,2008/1/6,19:39:00,  8-57.411N,106-27.592E,231.7,25.6548,33.3578
271,2008/1/6,19:40:00,  8-57.273N,106-27.417E,229.8,25.6716,33.3541
272,2008/1/6,19:41:00,  8-57.135N,106-27.242E,232.4,25.6695,33.3536
273,2008/1/6,19:42:00,  8-56.994N,106-27.069E,229.8,25.6673,33.3536
274,2008/1/6,19:43:00,  8-56.855N,106-26.893E,227.7,25.6584,33.3544
275,2008/1/6,19:44:00,  8-56.713N,106-26.719E,233.3,25.6666,33.3535
276,2008/1/6,19:45:00,  8-56.574N,106-26.544E,228.6,25.6654,33.3524
277,2008/1/6,19:46:00,  8-56.435N,106-26.368E,233.4,25.6594,33.3526
278,2008/1/6,19:47:00,  8-56.296N,106-26.191E,228.6,25.6582,33.3504
279,2008/1/6,19:48:00,  8-56.158N,106-26.015E,231.7,25.6594,33.3494
280,2008/1/6,19:49:00,  8-56.017N,106-25.844E,230.1,25.6602,33.3508
281,2008/1/6,19:50:00,  8-55.879N,106-25.670E,225.2,25.6435,33.3488
282,2008/1/6,19:51:00,  8-55.742N,106-25.497E,231.9,25.6466,33.3496
283,2008/1/6,19:52:00,  8-55.604N,106-25.325E,234,25.6461,33.3477
284,2008/1/6,19:53:00,  8-55.466N,106-25.150E,230.2,25.6458,33.3455
285,2008/1/6,19:54:00,  8-55.326N,106-24.976E,228.4,25.6434,33.344
286,2008/1/6,19:55:00,  8-55.189N,106-24.800E,230.2,25.6388,33.3423
287,2008/1/6,19:56:00,  8-55.050N,106-24.628E,232.7,25.6334,33.3385
288,2008/1/6,19:57:00,  8-54.912N,106-24.456E,230.3,25.6447,33.336
289,2008/1/6,19:58:00,  8-54.775N,106-24.284E,230.9,25.6389,33.3344
290,2008/1/6,19:59:00,  8-54.639N,106-24.110E,230.6,25.6377,33.333
291,2008/1/6,20:00:00,  8-54.501N,106-23.936E,233.9,25.649,33.3332
292,2008/1/6,20:01:00,  8-54.362N,106-23.763E,233,25.6376,33.3305
293,2008/1/6,20:02:00,  8-54.224N,106-23.590E,231.9,25.6495,33.3278
294,2008/1/6,20:03:00,  8-54.088N,106-23.417E,234.4,25.6335,33.3263
295,2008/1/6,20:04:00,  8-53.947N,106-23.249E,228.6,25.638,33.3249
296,2008/1/6,20:05:00,  8-53.810N,106-23.077E,230.8,25.6481,33.3226
297,2008/1/6,20:06:00,  8-53.673N,106-22.905E,230.2,25.6281,33.3229
298,2008/1/6,20:07:00,  8-53.536N,106-22.734E,228.8,25.6301,33.3243
299,2008/1/6,20:08:00,  8-53.399N,106-22.565E,230.3,25.6293,33.3227
300,2008/1/6,20:09:00,  8-53.251N,106-22.405E,230.3,25.6117,33.3215
301,2008/1/6,20:10:00,  8-53.105N,106-22.244E,228.8,25.623,33.3231
302,2008/1/6,20:11:00,  8-52.957N,106-22.082E,229.5,25.6409,33.3245
303,2008/1/6,20:12:00,  8-52.811N,106-21.918E,228.8,25.6274,33.322
304,2008/1/6,20:13:00,  8-52.661N,106-21.756E,228.6,25.6351,33.3222
305,2008/1/6,20:14:00,  8-52.513N,106-21.591E,226.8,25.6407,33.3219
306,2008/1/6,20:15:00,  8-52.363N,106-21.429E,227.3,25.6183,33.3214
307,2008/1/6,20:16:00,  8-52.222N,106-21.258E,236.9,25.6277,33.3192
308,2008/1/6,20:17:00,  8-52.113N,106-21.070E,262.5,25.6649,33.3201
309,2008/1/6,20:18:00,  8-52.128N,106-20.874E,274.4,25.6344,33.3212
310,2008/1/6,20:19:00,  8-52.120N,106-20.673E,260.7,25.6276,33.3216
311,2008/1/6,20:20:00,  8-52.094N,106-20.469E,265.4,25.6221,33.3196
312,2008/1/6,20:21:00,  8-52.042N,106-20.265E,249.6,25.6328,33.3318
313,2008/1/6,20:22:00,  8-51.958N,106-20.068E,245.8,25.6215,33.3341
314,2008/1/6,20:23:00,  8-51.878N,106-19.869E,248.6,25.6264,33.3351
315,2008/1/6,20:24:00,  8-51.799N,106-19.667E,246.6,25.6328,33.3314
316,2008/1/6,20:25:00,  8-51.718N,106-19.464E,247.1,25.6337,33.3256
317,2008/1/6,20:26:00,  8-51.639N,106-19.259E,247,25.6188,33.3219
318,2008/1/6,20:27:00,  8-51.559N,106-19.055E,248.4,25.6266,33.3175
319,2008/1/6,20:28:00,  8-51.478N,106-18.852E,249.1,25.6436,33.3203
320,2008/1/6,20:29:00,  8-51.401N,106-18.647E,246.6,25.6304,33.3196
321,2008/1/6,20:30:00,  8-51.322N,106-18.444E,246.8,25.6364,33.3214
322,2008/1/6,20:31:00,  8-51.226N,106-18.251E,232.6,25.6275,33.321
323,2008/1/6,20:32:00,  8-51.098N,106-18.075E,235.6,25.6411,33.3226
324,2008/1/6,20:33:00,  8-50.972N,106-17.898E,232.4,25.6364,33.3268
325,2008/1/6,20:34:00,  8-50.846N,106-17.722E,233.8,25.6471,33.3302
326,2008/1/6,20:35:00,  8-50.718N,106-17.543E,239.6,25.6512,33.3302
327,2008/1/6,20:36:00,  8-50.588N,106-17.365E,234.3,25.6433,33.3276
328,2008/1/6,20:37:00,  8-50.462N,106-17.187E,235,25.6599,33.3256
329,2008/1/6,20:38:00,  8-50.335N,106-17.008E,236.2,25.6442,33.3247
330,2008/1/6,20:39:00,  8-50.206N,106-16.829E,237.4,25.6581,33.3235
331,2008/1/6,20:40:00,  8-50.076N,106-16.651E,234.4,25.6542,33.3255
332,2008/1/6,20:41:00,  8-49.947N,106-16.471E,234.8,25.6409,33.3248
333,2008/1/6,20:42:00,  8-49.818N,106-16.291E,234.2,25.6403,33.3205
334,2008/1/6,20:43:00,  8-49.690N,106-16.110E,235.1,25.6443,33.3199
335,2008/1/6,20:44:00,  8-49.562N,106-15.930E,232.4,25.6523,33.3213
336,2008/1/6,20:45:00,  8-49.431N,106-15.753E,235.9,25.6494,33.3213
337,2008/1/6,20:46:00,  8-49.302N,106-15.574E,233.5,25.6605,33.3187
338,2008/1/6,20:47:00,  8-49.173N,106-15.396E,233.2,25.659,33.3198
339,2008/1/6,20:48:00,  8-49.044N,106-15.218E,235.5,25.6459,33.3193
340,2008/1/6,20:49:00,  8-48.915N,106-15.039E,233.4,25.6476,33.3231
341,2008/1/6,20:50:00,  8-48.785N,106-14.860E,230.4,25.6458,33.3231
342,2008/1/6,20:51:00,  8-48.654N,106-14.682E,235.1,25.6324,33.3215
343,2008/1/6,20:52:00,  8-48.525N,106-14.502E,232.8,25.6623,33.321
344,2008/1/6,20:53:00,  8-48.393N,106-14.326E,231.7,25.6578,33.3221
345,2008/1/6,20:54:00,  8-48.264N,106-14.148E,232.5,25.6554,33.3207
346,2008/1/6,20:55:00,  8-48.135N,106-13.972E,237.3,25.6377,33.3201
347,2008/1/6,20:56:00,  8-48.008N,106-13.795E,232.1,25.6554,33.3215
348,2008/1/6,20:57:00,  8-47.878N,106-13.618E,234.5,25.6514,33.3237
349,2008/1/6,20:58:00,  8-47.748N,106-13.440E,236.4,25.6624,33.3256
350,2008/1/6,20:59:00,  8-47.619N,106-13.263E,232.4,25.6608,33.3249
351,2008/1/6,21:00:00,  8-47.489N,106-13.084E,232.8,25.6705,33.3235
352,2008/1/6,21:01:00,  8-47.360N,106-12.905E,233.5,25.6675,33.3253
353,2008/1/6,21:02:00,  8-47.228N,106-12.728E,231.3,25.6615,33.3241
354,2008/1/6,21:03:00,  8-47.097N,106-12.551E,234.7,25.6604,33.3216
355,2008/1/6,21:04:00,  8-46.968N,106-12.373E,234.6,25.6617,33.3198
356,2008/1/6,21:05:00,  8-46.839N,106-12.194E,234.5,25.6521,33.3179
357,2008/1/6,21:06:00,  8-46.710N,106-12.015E,235.6,25.6689,33.3164
358,2008/1/6,21:07:00,  8-46.578N,106-11.837E,231.2,25.6593,33.3162
359,2008/1/6,21:08:00,  8-46.449N,106-11.658E,234.4,25.6775,33.3154
360,2008/1/6,21:09:00,  8-46.318N,106-11.480E,232.3,25.6761,33.3133
361,2008/1/6,21:10:00,  8-46.185N,106-11.303E,234.2,25.6703,33.3146
362,2008/1/6,21:11:00,  8-46.055N,106-11.122E,233.4,25.6707,33.3139
363,2008/1/6,21:12:00,  8-45.924N,106-10.943E,236.5,25.6673,33.3138
364,2008/1/6,21:13:00,  8-45.796N,106-10.765E,232.6,25.6717,33.3145
365,2008/1/6,21:14:00,  8-45.663N,106-10.588E,233.5,25.6534,33.3114
366,2008/1/6,21:15:00,  8-45.532N,106-10.408E,233,25.6702,33.3084
367,2008/1/6,21:16:00,  8-45.400N,106-10.229E,233.2,25.6592,33.3107
368,2008/1/6,21:17:00,  8-45.268N,106-10.050E,234.6,25.6598,33.3089
369,2008/1/6,21:18:00,  8-45.136N,106-09.871E,236.4,25.6642,33.3106